TIMESTAMP,CO2_1_1_1,H2O_1_1_1,TAU_1_1_1,TAU_SSITC_TEST_1_1_1,H_1_1_1,H_SSITC_TEST_1_1_1,LE_1_1_1,LE_SSITC_TEST_1_1_1,FC_1_1_1,FC_SSITC_TEST_1_1_1,WD_0_0_1,WS_0_0_1,WS_MAX_0_0_1,U_SIGMA_0_0_1,V_SIGMA_0_0_1,W_SIGMA_0_0_1,USTAR_0_0_1,MO_LENGTH_0_0_1,ZL_0_0_1,FETCH_MAX_0_0_1,FETCH_70_0_0_1,FETCH_80_0_0_1,FETCH_90_0_0_1,PA_0_0_1,RH_0_0_1,TA_0_0_1,VPD_0_0_1,T_SONIC_0_0_1,T_SONIC_SIGMA_0_0_1
[yyyymmddHHMMSS],[mmolCO2 mol-1],[mmolH2O mol-1],[kg m-1 s-2],[#],[W m-2],[#],[W m-2],[#],[umolCO2 m-2 s-1],[#],[Decimal degrees],[m s-1],[m s-1],[m s-1],[m s-1],[m s-1],[m s-1],[m],[#],[m],[m],[m],[m],[kPa],[%],[deg C],[hPa],[deg C],[deg C]
20220724003000,406.82025296102927,18.265177298406353,0.29247960006686480,0,5.8538688545147419,1,77.425301359550474,0,-1.3671543612147523,1,218.40080845403284,2.4520245116547192,5.7862759105886159,0.98756060856824290,0.93834231339719931,0.64331515012061746,0.51769424600521663,-1968.0084798343182,-9.6544299451390390E-003,105.23847516848826,192.40949669815794,230.26502547654192,288.26448765469786,93.126739789115916,64.197586206896545,22.088620689655158,9.4887363427689202,23.005893385075694,0.10684708262715835
20220724010000,411.36238287321032,17.881840846143458,0.52895059812352696,0,-33.277594200161481,0,51.185691246339630,0,2.0858589323935326,0,222.45750854164430,3.7315734853723521,10.156670457260121,1.4473373955809692,1.2118585885748694,0.90793959482062125,0.69545511001454241,839.26321777758153,2.2638904693468062E-002,101.16367952958726,184.95947068083348,221.34924709699928,277.10299110826071,93.134927610243068,65.047333333333327,21.527333333333331,8.9514234914597370,22.346604143778507,0.29213588261014617
20220724013000,412.99797464400882,18.050931193067225,0.23790797554635146,0,-17.056809855638409,1,12.672205279686768,1,3.7703767542250244,0,228.48474502305581,2.6185087182719489,6.3741484255630452,1.0020737722305242,0.77980486972191865,0.59504310311839048,0.46580760358038636,492.13627432786950,3.8607192745442449E-002,102.93934911531586,188.20596100431331,225.23446684900637,281.96682520082607,93.169206220052089,68.438666666666663,20.858333333333348,7.7578662444515594,21.718834864298458,0.25149885524006160
20220724020000,415.96792066667570,18.280475482844579,0.11572638907709691,0,-34.076408655451381,0,5.7640141172383821,1,5.2226283552419890,0,234.27318661993590,2.1332544206877477,5.5459886368386497,0.77611107408793534,0.62469578570796991,0.46959459718185348,0.32431520656128332,83.156208167683033,0.22848564669623744,93.121567225402814,170.25592448861798,203.75285764301432,255.07439957540436,93.191558796440987,73.605666666666664,19.887999999999977,6.1105456040772630,20.892416346232039,0.25178540252903570
20220724023000,418.87755176524513,18.444180116759032,0.11795939396287838,1,-30.104341139884848,1,11.773754322979032,2,8.4931664101459301,1,241.31229335328598,1.8045266918366716,4.6567215494127572,0.74497670357934997,0.45302499328574303,0.31272256507463070,0.32703113459233030,96.539470110375106,0.19681069285212566,129.77732105314419,237.27433323879686,283.95677617654781,355.48018823619032,93.225541727430553,77.226666666666659,19.264333333333354,5.0718927664659370,20.313604970296183,0.25756501107839419
20220724030000,419.78717954875532,18.684098046644380,4.6285440024365285E-002,0,-17.882996671843607,0,-1.6491039254062951,1,2.6726832225533612,0,246.55659870924126,2.2059094791639184,4.0683039498406277,0.54317114021136825,0.33088952173637537,0.24700393398950565,0.20474102725223262,39.886636290442311,0.47635002013325461,107.75953433138370,197.01879689851125,235.78118058466734,295.17005927929358,93.246684098853578,79.644999999999996,18.980666666666650,4.4538399248320681,20.093471346158026,0.32533766163097183
20220724033000,425.27686143114698,18.746299810350852,7.2230172274265328E-002,0,-24.185189465304028,0,-1.8204339161129230,2,5.5014947234010956,0,241.46835445376985,2.3028255523632222,4.5443894504037772,0.51045472702321992,0.51995810194961201,0.30894452895513458,0.25545026138742916,57.287989452152352,0.33165765078680304,107.54632484040600,196.62898194932455,235.31467165061807,294.58604545182789,93.259260449652785,83.433333333333337,18.293333333333351,3.4723184184607661,19.404143027411578,0.28117325586908065
20220724040000,424.21646122365212,19.003184549279805,9.8755641894857332E-002,0,-22.852531598636382,0,-1.2901473848475233,2,3.9568716804889701,0,245.20752317334191,2.4958248242394769,4.8587879789740658,0.60852570607974599,0.57123722710190217,0.36964720338726575,0.29873736464149225,96.951325256112185,0.19597462901934048,105.59821967954058,193.06722439898866,231.05215754843752,289.24988360422162,93.230962625744837,84.733333333333334,18.259000000000015,3.1929562325755545,19.435755749247903,0.27696335850707993
20220724043000,423.05479667265411,19.262927648634076,0.18621015528136353,0,-30.053065807667593,0,0.80802202485073749,2,7.7426926667758957,0,260.97649558828539,2.8070294548991326,5.7127570105161185,0.79542476190498901,0.65158549494127993,0.48746269628320787,0.41059760834704445,191.38493546865442,9.9276361294966572E-002,109.15281061952555,199.56615031591542,238.82971202215921,298.98645888713315,93.202218057291674,83.599999999999994,18.685666666666691,3.5229184598402434,19.846017595079275,0.22272439049753839
20220724050000,422.96230483442071,19.385932048320562,0.15858606213345927,0,-37.345814655430836,0,-5.6926670571084665,1,5.3406032845750975,0,272.19912659465348,2.6861453330911047,5.7124272926938167,0.77813114544778750,0.71570087655113424,0.49693762074536874,0.37914635773584621,121.21962676436738,0.15674029451462615,100.84605399827311,184.37874990812372,220.65427265022058,276.23296556956171,93.152941809678836,83.143333333333331,18.866666666666674,3.6622164321895956,20.016307649400460,0.19034554064349921
20220724053000,423.70694158509480,19.428445732686406,0.11844204375668146,0,-24.275076409069669,0,3.4004774136623679,2,3.2665635619247171,0,269.42888739548800,2.2991040235731037,5.5419936474679306,0.70113283532310000,0.61355016583742672,0.41107862154757174,0.32760129486608974,120.28792617351078,0.15795434009389453,104.42187191276817,190.91648550445120,228.47827239805451,286.02768482426501,93.137815003255213,84.159999999999997,18.704666666666640,3.4066697455105781,19.876665701972115,0.18794656064362739
20220724060000,423.83680947242675,19.421957871499700,0.14053989095944219,0,-31.544410344958678,0,0.47792372286416701,2,6.7428868111302220,1,272.15685307938344,2.7097560781426950,6.3053185455147727,0.79373399636402930,0.73779017800710978,0.46831767913183570,0.35683210957106015,119.58268471112348,0.15888587922154784,100.73806383100509,184.18130944066044,220.41798683766604,275.93716377093796,93.094292956380201,85.013333333333335,18.530666666666662,3.1882366343427702,19.684163259718218,0.23099140699519222
20220724063000,424.17533360478330,19.287593965144669,0.21906061421132197,0,-41.615082733736905,0,-6.5978221865464546,1,7.0938021498922232,0,290.10683555212927,3.2607538054158574,6.9505110563410906,0.93501987454911606,0.78150973205459329,0.58771671947441884,0.44539588833395555,176.21373839274756,0.10782360202615159,100.30380911688138,183.38735332480479,219.46782414620824,274.74767283163942,93.053890080295147,85.700000000000003,18.284666666666681,2.9956031806598435,19.417117735968702,0.19038086113179400
20220724070000,424.67373958513099,19.271831466911728,0.20041844112872109,0,-48.396768130306121,0,-7.5693201518803583,1,7.2721947490137246,0,284.10159963501860,2.9596174191263231,7.2436973231270594,0.94575636833085985,0.79973795718308538,0.57950506953626502,0.42600160603517018,132.57797531157578,0.14331188838377934,97.889947885548651,178.97404513237481,214.18622141450979,268.13573294933275,93.054948420962631,85.760000000000005,18.260666666666680,2.9785449466316094,19.406051430076218,0.21003011167650093
20220724073000,424.99632259759261,19.085097560562339,0.14985476261710182,0,-30.523268987577950,0,-2.8487637922567650,0,3.8702874224602293,0,286.50141360239866,2.9222793859951026,6.3571512559889802,0.95646607481327006,0.73758387361477495,0.50635522454997128,0.36820197490828294,135.75498107337438,0.13995803210882307,97.041958835989391,177.42365069754459,212.33079525228186,265.81295956710130,93.081979150607651,85.766666666666666,18.108999999999980,2.9489306632142873,19.211964402940623,0.20702092161016722
20220724080000,428.25135242130978,19.249746134277988,3.5749399813045535E-002,0,-14.357202095662336,1,-2.5563626222584435,1,1.9735394409508731,1,265.99123254440849,2.0538003013247503,4.1125079749578060,0.46381835198255084,0.46331638663066366,0.28494895291066502,0.17974146266113325,33.577403961273376,0.56585672977916102,181.36613707027715,1737.0000000000000,3220.0000000000000,8842.0000000000000,93.091967572699659,88.189999999999998,17.804333333333318,2.4004034940143586,18.919286899142890,0.20477974209034772
20220724083000,431.80184256415839,19.215059558374065,0.12036588926623300,1,4.8716573418658937,2,4.4592169542535318,2,-2.1006503353463022,2,259.24863885918683,2.0205184427171985,5.1188645584465817,0.53097005042661782,0.73734654543281020,0.33537412562780500,0.32955451948862274,-609.98209134949309,-3.1148455453774676E-002,123.47330544884774,225.74858215148717,270.16339584294059,338.21251284056774,93.105686173394105,90.329999999999998,17.398000000000025,1.9157061046831496,18.460801812065995,0.32007665020633885
20220724090000,437.92242709622263,19.164682495727135,0.11081661678616554,1,-1.4796164277110568,2,16.433310442092530,2,5.6731726643792824,1,261.50628123474337,2.3385917680666632,3.9512846846927503,0.47301950305424467,0.60378300456455458,0.28312788962661384,0.31590800984899170,1769.0463637656603,1.0740249882177122E-002,136.68387683419280,249.90171993954246,299.06853297777627,374.39831452503176,93.106437815538200,93.286666666666662,16.848000000000013,1.2844477889963628,17.951063413831946,0.24602272705830497
20220724093000,437.48235579403075,19.150345334839074,5.2768332274868157E-002,0,-3.7327380612986314,2,7.8361337690464588,1,0.88100360832884361,2,279.64821544055957,2.3044955166764312,4.2635132986814597,0.54938969754525602,0.51147436480143238,0.30976010653132063,0.21797008303359483,230.31938402813807,8.2494142124306710E-002,94.526161722417783,172.82397120159976,206.82615367017121,258.92180151083136,93.095251246518515,93.783333333333331,16.750666666666689,1.1820954187454913,17.874047860041060,0.18175150541344709
20220724100000,439.93862643383818,19.011052713114104,6.7790489394347481E-002,0,-11.716430584003078,0,-1.2191046648466000,0,3.2709802936488539,0,269.06893186899435,2.1686179405154005,4.3279917190249657,0.55510002631484279,0.46033481514554980,0.31056987653724266,0.24694614260237618,106.69670417178909,0.17807485383436664,104.23395905914938,190.57292087630529,228.06711328579425,285.51296240563033,93.090742769531246,94.620000000000005,16.495333333333349,1.0065340537402880,17.606153361002612,0.20374276533797922
20220724103000,438.86702263005236,18.750021667680500,5.6642885654677302E-002,0,-13.243593166236888,0,-2.5921795239579399,1,2.9817830115432917,0,260.56708140279522,2.2360706565330979,4.3578821437629340,0.54901060809405255,0.48975321662361543,0.30998165065700056,0.22561980652546329,71.987584104636923,0.26393440252672901,97.115351979072912,177.55783677064366,212.49138171018018,266.01399475650771,93.095022985894104,94.776666666666671,16.252999999999986,0.96225688713499491,17.336308727688220,0.20460537576950683
20220724110000,439.48877035101867,18.663007280793114,0.10192633172365727,0,-25.598565472941445,0,-6.7656620115779100,0,2.6423530194735352,1,269.93449598915663,2.1953657135704430,5.2672546259635586,0.64822474524101459,0.55953826289713393,0.38331285542689353,0.30261150815016297,89.859460811085071,0.21144128652123137,103.63836287077440,189.48398108829431,226.76393047864767,283.88153217238028,93.094623089192709,94.786666666666662,16.178333333333342,0.95585264418153426,17.233906383938290,0.19938003450497899
20220724113000,438.12538365667569,18.468684136839705,0.19273337862966361,0,-16.538467057229543,0,4.5609112245942551,2,7.0053120780124498,0,282.27790773958128,3.0050333977266841,7.7686202906830033,0.99338421395687504,0.80584031115095456,0.55698345166579766,0.41611656214463388,361.66335528438697,5.2535043217358079E-002,99.163778700412905,181.30301412944772,216.97340247702439,271.62495290066443,93.108521058197212,93.473333333333329,16.235333333333358,1.2010070697488435,17.158789842862802,0.13556840093464900
20220724120000,432.98264439385628,17.929603713515643,0.39457961059938162,0,-1.9159734275595501,2,-1.5284116736415803,2,-1.1931919655050696,2,299.46689972358917,3.9415006436772884,8.2610611451351055,1.2585575590352009,1.0905500117766098,0.74333696663066839,0.59520766050160545,9135.6912614231132,2.0797550460390966E-003,104.81926850580052,191.64305321965708,229.34778838517218,287.11621565961576,93.112472723307292,91.379999999999995,16.126666666666665,1.5752559989114934,16.832236099243119,0.12934822650026834
20220724123000,428.68665616825803,17.525616319371146,0.36847069814586919,0,16.730438043410942,0,20.035271213694180,0,-3.2383701047968505,0,318.28827377144330,3.2869281698994102,9.1963806902530330,1.3781799934688790,1.0625937502373917,0.73484803580522295,0.57475268616381647,-942.16407695974522,-2.0166338819997052E-002,102.86832715643244,188.07611021218241,225.07906861518074,281.77228505230164,93.142156392795144,91.030000000000001,15.834999999999980,1.6089552587799585,16.580879791259804,8.9513712723700664E-002
20220724130000,422.69838299009069,17.283113105569178,0.56803175833786979,0,44.213750077365169,0,53.862422157469936,1,-6.3863501220399588,0,322.75526957181631,2.7252870445533044,8.5865180479963321,1.4203720469615693,0.96230701724372525,0.68794307290935874,0.71357472064945326,-682.38262902990220,-2.7843616164454583E-002,128.93311140721212,235.73084875917604,282.10961946587838,353.16776722602128,93.170446333116317,89.343333333333334,15.914333333333332,1.9212145067895607,16.651958286709259,0.13642929356884695
20220724133000,418.14834780582873,17.088601477828870,0.47977970864968683,0,55.878647141533683,0,27.493891827359864,1,-13.468315786801204,1,325.66269785616663,3.1726877009840035,11.051899775677180,1.5748010461138029,1.1228406861069955,0.74875981475820164,0.65610503671690368,-419.73942023292443,-4.5266179644162088E-002,112.65736125334541,205.97358659363525,246.49777676453013,308.58596601891765,93.185742326388890,86.486666666666665,16.248666666666679,2.4887759468490525,16.915469109429296,0.17415151292061926
20220724140000,414.34918776136828,16.859904247977148,0.81705722674727976,0,84.438063796189866,0,114.13531873030671,0,-10.145808416921120,0,330.22957481186529,3.8433180540381899,11.144701170354054,1.8600773054623110,1.2901818438642347,0.91141415168501838,0.85707681226082721,-619.15317728319462,-3.0687075019740367E-002,119.20599091329467,217.94657019032988,260.82638018709446,326.52367721003225,93.181028350043405,82.135333333333335,16.847666666666669,3.4179363850265418,17.380430358886656,0.42830576870569687
20220724143000,413.09526050309125,16.247571132192718,0.74764243130521757,0,119.70044891793870,0,138.07404351794082,0,-12.040921832663754,0,319.03239335735907,4.2723097854271295,10.963359756281022,1.9839818034983716,1.5392847702301591,0.92901499969452539,0.82053010974788576,-383.18792152958923,-4.9584026354893458E-002,113.37370431953762,207.28329018453761,248.06515745987571,310.54814065733092,93.177748006944441,76.534000000000006,17.378333333333330,4.6430332142365680,17.802314014858723,0.38490839009166555
20220724150000,411.70702068647540,15.862594140097375,0.68864071090246237,0,120.71517578495130,0,56.148261086185641,2,-18.239658304001974,0,309.23727371473069,4.2219940011931474,11.464328019182490,1.7768169608568092,1.4819140242513487,0.97415012653336042,0.78759981780716826,-336.04049500384656,-5.6540804702071734E-002,105.63277096863378,193.13039517501949,231.12775683330511,289.34452493793833,93.189885331226037,73.965000000000003,17.541333333333341,5.2046411315462864,17.917036022224920,0.30449503224845631
20220724153000,409.83312401783343,15.413772723159273,0.71311016319382747,0,140.68057588203413,0,184.13107002543407,0,-15.884508757738567,0,309.17510361028610,3.6902071542245727,10.365006732749112,1.6622346996516268,1.2897716512214721,0.93977371952166089,0.80206114586009503,-304.53179638945494,-6.2390857786493899E-002,110.30678980654841,201.67599231257807,241.35465403099957,302.14738666168279,93.201000110478489,69.595333333333329,18.054333333333318,6.2777805500896964,18.343179248373872,0.34804416021815249
20220724160000,409.44022355625088,14.600538431284741,1.1278005950247521,0,258.73635043936167,0,122.94984738931839,1,-22.944586538079271,0,311.41243930266683,4.5065926192656889,14.114494430282285,2.1576498118585383,1.6860136378706374,1.0732221525431316,1.0093840332358377,-329.98823141741968,-5.7577810937038808E-002,119.21978700015796,217.97179383715223,260.85656645013154,326.56146682932234,93.200561065104168,63.862000000000002,18.560666666666634,7.7023894893777243,18.640160634358836,0.49033259992254769
20220724163000,409.34353183176881,14.258855044076224,1.2274289450847125,0,206.07760504536139,0,224.93503009006901,0,-18.856412704891529,0,296.64642624016085,4.4768583086034939,12.856086610049173,2.2270857978995129,1.8122823603027003,1.1426090323218587,1.0533523180228048,-470.84167096875558,-4.0353267715042183E-002,117.32638828716800,214.51005712125931,256.71375174110165,321.37515441789407,93.206964702690968,61.443666666666665,18.800333333333356,8.3419599494344112,18.845962751600496,0.45958615501808897
20220724170000,408.63740301261612,13.802563010444862,1.0725118112576433,0,173.55581168920239,0,188.44571240260242,0,-17.388961408695746,0,303.39303129169110,4.5478536556236131,12.406529575355963,2.1076652786408085,1.7099104768201647,1.0843743624804913,0.98501002897054024,-457.13901433919835,-4.1562849382839918E-002,115.94820475103310,211.99029806811023,253.69824370992413,317.60009619606018,93.210544219939180,58.439333333333330,19.083000000000027,9.1520527329938712,19.116154646131747,0.41504766796023990
20220724173000,408.21676322638854,13.554676928598093,1.3797878465727145,0,261.89846927201836,0,160.04313324588270,1,-22.389902295187380,0,305.35292753913529,4.7604213289192936,13.892548643395184,2.2467426286497676,2.0473101998960868,1.1719381239083861,1.1177966060436506,-442.70361664237765,-4.2918104315710782E-002,120.56503685047547,220.43133960896674,263.80001456223818,330.24631458342066,93.212741938557400,56.235333333333330,19.409666666666681,9.8354737728875872,19.338801810566338,0.48579958247608468
20220724180000,408.33061880711620,13.233564323145155,1.1774006722423034,0,247.34629104492072,0,284.87665943431711,0,-19.097458771771006,0,303.00865481393890,4.9963736701531092,13.451170415690266,2.1826898761480646,1.8154742755431528,1.2492538161463125,1.0326462204246958,-369.62881505171458,-5.1402918891325394E-002,107.52157065496870,196.58372340340264,235.26050873034345,294.51823990284998,93.237089705287445,54.386333333333333,19.565999999999974,10.351117186666670,19.487482506691492,0.53189039389185178
20220724183000,408.40160829776346,13.711642797012987,1.3084303457849107,0,265.07283886403400,0,284.17406798229172,0,-18.107027854389973,0,303.14667151786244,5.3240390822318826,13.725947515988892,2.4537369260154747,2.2456478990262334,1.2570896927430135,1.0888851828403703,-404.42411717964194,-4.6980383198958316E-002,111.62142380106732,204.07956253556637,244.23111370751590,305.74837284355891,93.238032348307286,55.975000000000001,19.673999999999978,10.057830962514190,19.473799337599075,0.56219959515053008
20220724190000,409.20484898872257,13.297123586019980,1.3260602332720006,0,192.84993949146352,0,163.46063809165122,0,-15.444972211697943,0,308.19658389218091,5.4275024038973134,14.457559828443848,2.3594126167569152,1.9890810244920696,1.2810245283902513,1.0951463725214590,-565.59264934157557,-3.3593081561647781E-002,110.45533028173138,201.94757167576728,241.67966516639984,302.55426203597960,93.263778467664935,55.783000000000001,19.240000000000009,9.8327409510112354,19.159994717915936,0.47598987018595607
20220724193000,409.40253779985494,13.408293047107518,1.0305692751102586,0,117.74679196456667,0,236.34185616614670,0,-13.907604256552567,0,315.48728271629028,5.5885094405245814,13.116264030012129,2.2114783584835194,1.6835456675675660,1.1185500629634659,0.96503281483436687,-633.92496651018087,-2.9972001425652730E-002,111.26644785494204,203.43055329227806,243.45441540257343,304.77603873214468,93.278179507161468,57.031333333333336,19.021000000000015,9.4255865665667145,18.955238651699574,0.36347359476784386
20220724200000,409.22569099080289,14.072504293094074,0.94933319565812047,0,176.75631104331515,0,181.45618266675166,0,-16.261239181384855,0,318.54773377308823,4.5700164730244790,14.130763013067646,2.1585720052007211,1.4930908381715879,1.0305058539768559,0.92613072041246092,-373.34207660348693,-5.0891665286844190E-002,114.96148403986497,210.18625790966485,251.53926839855060,314.89731529955083,93.294980424479164,60.150666666666666,18.945333333333338,8.7001504345602410,18.962022787306012,0.49052138462073736
20220724203000,408.82007799669799,13.867762986983172,0.90336346834622183,0,22.771415485643089,0,103.06133786027375,0,-9.4871723410519735,0,311.92177812880215,5.2403908146098992,12.329781617972406,2.1192256669154719,1.6676894157028710,1.1018963037663070,0.90263052723009363,-2683.0741288213840,-7.0814293932110950E-003,106.74568604108488,195.16515887351738,233.56284929450712,292.39297174078001,93.309161136284715,60.973999999999997,18.495999999999981,8.2843135632863145,18.685984389411033,0.17802705834091137
20220724210000,409.86794861072082,14.805486018015987,1.1292328486385725,0,-103.70280371518014,2,267.36858858765885,1,-8.7116713659066214,1,311.46853628029362,5.2365206452079933,14.218925808924663,2.1975532865121923,1.7803602846227584,1.1549719448905515,1.0062832157455439,816.83825275348511,2.3260418982525344E-002,112.14345575200471,205.03400343543129,245.37333569704700,307.17829923345982,93.374643962456588,71.938333333333333,16.921666666666681,5.3941273596418364,17.251839427241521,0.86767736065149281
20220724213000,408.42461760983969,14.008123208708994,0.81628180345879375,0,-7.6232488608143827,2,158.06798992374539,0,-12.434363737502597,0,310.91056039244893,4.4713063380428828,13.817136710807707,1.8947619925708024,1.5542572931637624,1.0871420475286706,0.85435521384660218,6801.8793572779359,2.7933456331697810E-003,103.26107559220486,188.79417961346337,225.93841429102997,282.84808386479733,93.420605231540648,70.671333333333337,16.338000000000022,5.4323550041360091,16.708047864299147,0.37533878859733927
20220724220000,406.08005037322459,14.777786320516714,0.35704502144707451,0,0.98727622819788863,2,64.890896808041475,1,-6.1042820773913542,1,299.66913908212865,3.4462378495908643,9.1593022196543341,1.3010708291979325,1.0550441458525004,0.74248183343257546,0.56460677123603709,-15163.157721095877,-1.2530371542311457E-003,100.57802421471096,183.88870598005713,220.06781522729045,275.49879046762260,93.445476683810767,76.758333333333340,15.885666666666680,4.1824030019009504,16.373614662170326,0.43569461846701879
20220724223000,406.77618276688639,14.146068717008756,0.72229032279534622,0,-11.657842313696925,2,22.557733282918896,2,-4.9650665886653762,1,324.10034936435619,4.2126709839672012,11.344608110593462,1.8169036423573972,1.5703130272283954,0.95306028393594788,0.80386701499349245,3706.2230841405417,5.1265127782792446E-003,109.27126459322135,199.78272195878856,239.08889296550896,299.31092267267746,93.460059060112854,70.254000000000005,16.591666666666640,5.5993267429163369,16.927242546081516,0.22281820365665700